Location: ?????
(33.6267°N, 35.4675°E)
Time: 21:28:02
(UTC+00:00)

YAOGAN 6 - Pass Details

Date: 12 November 2019
Orbit: 467 x 504 km, 97.0° (Epoch: 15 December)

Event Time Altitude Azimuth Distance (km) Brightness Sun altitude
Rises 16:19:55 0° 183° (S) 2,518 6.3 -21.5°
Reaches altitude 10° 16:22:04 10° 191° (S) 1,638 5.4 -21.9°
Maximum altitude 16:25:23 39° 261° (W) 718 3.9 -22.6°
Drops below altitude 10° 16:28:42 10° 332° (NNW) 1,635 5.5 -23.3°
Sets 16:30:50 0° 340° (NNW) 2,512 6.4 -23.7°
